Погода в Муйнаке

Узбекистан     43°46′05″N   59°01′52″E
темп.,
°C
ветер,
м/с
пор.,
м/с
влажн.,
%
обл.,
%
осадки,
мм/ч
давл.,
гПа
погр.,
м
27 февраля, сб
сб2723:00−2ю111754100 0.6 1022771
02:00−2ююз111695100 0.6 1019429
05:00+1зсз81186100 1.2 1019423
08:00−4зсз598744 0.0 1020227
11:00−1з567160 0.0 1021513
14:00+2зюз565651 0.0 1021507
17:00+4юз585725 0.0 1021644
20:00+3ююз5108481 0.0 1020248
28 февраля, вс
вс2823:00+4юз6118991 0.0 1019295
02:00+5юз71391100 0.0 1018344
05:00+5юз61283100 0.3 1018327
08:00+4ююз588896 0.4 1018177
11:00+8ююз795391 0.4 1018552
14:00+11ююз793764 0.0 10161013
17:00+12юз673332 0.0 10151399
20:00+9юз34380 0.0 101530
1 марта, пн
пн123:00+7ююз45300 0.0 101634
02:00+5ююз453567 0.0 101545
05:00+3з224483 0.0 101522
08:00+4с4580100 0.0 101642
11:00+6ссв6784100 0.0 1018417
14:00+6с5676100 0.0 1018530
17:00+5с567699 0.0 1019630
20:00+4с5675100 0.0 1021681
2 марта, вт
вт223:00+4с4574100 0.0 1022644
02:00+3ссз4687100 0.1 1023436
05:00+2сз578098 0.1 1024461
08:000зсз348282 0.0 1025129
11:00+3сз446181 0.0 1026751
14:00+5сз445138 0.0 1026901
17:00+5зсз344968 0.0 1025994
20:00+3зсз235896 0.0 102579
3 марта, ср
ср323:00+2зюз226289 0.0 102523
02:00+1юз22661 0.0 102422
05:000ю33689 0.0 102323
08:00−1ю34800 0.0 102250
11:00+5ю565310 0.0 1022601
14:00+8ююз46400 0.0 10201481
17:00+9юз453928 0.0 10171676
20:00+7юз115477 0.0 101622